Location: Caltech
(34.1382°N, 118.1253°W)
Time: 04:44:51
(UTC-08:00)

NOSS 3-2 (A) - Visible Passes

Search period start: 04 March 2015 00:00
Search period end: 14 March 2015 01:00
Orbit: 932 x 1276 km, 63.4° (Epoch: 21 February)

Date Brightness Start Highest point End Pass type
(mag) Time Alt. Az. Time Alt. Az. Time Alt. Az.
04 Mar 4.0 18:15:39 10° NNW 18:23:13 77° ENE 18:31:10 10° SE visible
04 Mar 6.2 20:08:20 10° WNW 20:13:44 20° WSW 20:18:53 10° SSW visible
05 Mar 5.6 19:21:51 10° NW 19:28:35 34° WSW 19:35:24 10° S visible
06 Mar 4.8 18:36:00 10° NW 18:43:23 55° WSW 18:51:02 10° S visible
07 Mar 6.6 19:44:23 10° WNW 19:48:28 14° WSW 19:52:02 10° SW visible
08 Mar 6.2 19:57:13 10° WNW 20:03:21 26° WSW 20:09:24 10° SSW visible
09 Mar 5.5 19:11:05 10° NW 19:18:11 42° WSW 19:25:28 10° S visible
11 Mar 6.6 19:32:50 10° WNW 19:38:06 19° WSW 19:43:03 10° SSW visible
